BAW122 OTHH-EGLL

Flight info

Callsign BAW122
Flight time 6h 17m
Altitude 32000
Route LUBET2A/34L LUBET L934 DAVUS/N0511F340 L602 TASMI/N0507F360 L602 ALPET L718 DEBNI DCT SEVKU L718 KABAN UL718 ULSAB UG8 GEM UT32 BUK UL602 MAKOL L602 KOMAN DCT DEGET/N0492F380 DCT BEGLA DCT DEXIT DCT INBED DCT BOMBI DCT ADKUV DCT HELEN L179 SASKI/N0492F320 L608 LOGAN
Aircraft A388/J-SADE2E3FGHIJ3J4J5M1RWXY/LB1D1

Departure

Time 2026-05-05 10:14
Airport Hamad International Airport (OTHH)

Arrival

Time 2026-05-05 16:31
Airport London Heathrow Airport (EGLL)
Time Latitude Longitude Altitude Speed Heading
2026-05-05 09:58 25.26461 51.61103 28 ft 0 kts 68°
2026-05-05 10:06 25.26451 51.61075 31 ft 7 kts 68°
2026-05-05 10:06 25.26425 51.61039 31 ft 3 kts 36°
2026-05-05 10:06 25.26382 51.61031 31 ft 7 kts 345°
2026-05-05 10:07 25.26370 51.61037 31 ft 0 kts 327°
2026-05-05 10:08 25.26371 51.61037 25 ft 2 kts 328°
2026-05-05 10:09 25.26446 51.60995 28 ft 21 kts 336°
2026-05-05 10:09 25.26587 51.60893 29 ft 24 kts 296°
2026-05-05 10:09 25.26654 51.60724 28 ft 24 kts 293°
2026-05-05 10:09 25.26671 51.60558 29 ft 22 kts 250°
2026-05-05 10:10 25.26605 51.60412 27 ft 17 kts 205°
2026-05-05 10:10 25.26523 51.60428 26 ft 13 kts 161°
2026-05-05 10:10 25.26433 51.60461 29 ft 15 kts 160°
2026-05-05 10:10 25.26332 51.60503 30 ft 17 kts 158°
2026-05-05 10:11 25.26192 51.60567 31 ft 27 kts 157°
2026-05-05 10:11 25.25961 51.60670 27 ft 41 kts 158°
2026-05-05 10:11 25.25739 51.60720 29 ft 19 kts 224°
2026-05-05 10:11 25.25699 51.60611 30 ft 23 kts 249°
2026-05-05 10:12 25.25658 51.60488 27 ft 0 kts 274°
2026-05-05 10:12 25.25664 51.60473 27 ft 6 kts 320°
2026-05-05 10:12 25.25724 51.60453 28 ft 9 kts 340°
2026-05-05 10:12 25.25727 51.60451 28 ft 0 kts 336°
2026-05-05 10:13 25.25812 51.60414 27 ft 42 kts 339°
2026-05-05 10:13 25.26318 51.60196 29 ft 111 kts 338°
2026-05-05 10:13 25.27203 51.59809 29 ft 159 kts 338°
2026-05-05 10:13 25.28302 51.59320 213 ft 174 kts 339°
2026-05-05 10:14 25.29438 51.58815 614 ft 178 kts 340°
2026-05-05 10:14 25.30592 51.58330 962 ft 180 kts 340°
2026-05-05 10:14 25.31760 51.57838 1372 ft 181 kts 340°
2026-05-05 10:14 25.32896 51.57362 1715 ft 185 kts 340°
2026-05-05 10:15 25.34139 51.56827 1813 ft 198 kts 338°
2026-05-05 10:15 25.35445 51.56247 1879 ft 206 kts 338°
2026-05-05 10:15 25.36793 51.55635 1945 ft 212 kts 338°
2026-05-05 10:15 25.38169 51.55001 2001 ft 217 kts 338°
2026-05-05 10:16 25.39614 51.54337 2101 ft 233 kts 338°
2026-05-05 10:16 25.41178 51.53629 2231 ft 253 kts 338°
2026-05-05 10:16 25.42861 51.52868 2513 ft 266 kts 338°
2026-05-05 10:16 25.44573 51.52106 3133 ft 264 kts 339°
2026-05-05 10:17 25.46300 51.51344 3559 ft 270 kts 339°
2026-05-05 10:17 25.48078 51.50717 4139 ft 268 kts 353°
2026-05-05 10:17 25.49945 51.50571 4624 ft 272 kts 351°
2026-05-05 10:17 25.51761 51.49950 5164 ft 273 kts 339°
2026-05-05 10:18 25.53514 51.49095 5701 ft 276 kts 337°
2026-05-05 10:18 25.55259 51.48245 6252 ft 279 kts 338°
2026-05-05 10:18 25.57063 51.47427 6772 ft 280 kts 339°
2026-05-05 10:18 25.58885 51.46649 7362 ft 281 kts 340°
2026-05-05 10:19 25.60723 51.45892 7884 ft 283 kts 340°
2026-05-05 10:19 25.62576 51.45140 8492 ft 283 kts 340°
2026-05-05 10:19 25.64433 51.44389 9066 ft 286 kts 339°
2026-05-05 10:19 25.66318 51.43624 9604 ft 289 kts 339°
2026-05-05 10:20 25.68201 51.42859 10171 ft 290 kts 339°
2026-05-05 10:20 25.70150 51.42065 10334 ft 306 kts 339°
2026-05-05 10:20 25.72203 51.41228 10489 ft 322 kts 339°
2026-05-05 10:20 25.74335 51.40358 10622 ft 337 kts 339°
2026-05-05 10:21 25.76589 51.39439 10793 ft 351 kts 339°
2026-05-05 10:21 25.78889 51.38504 11278 ft 353 kts 338°
2026-05-05 10:21 25.81210 51.37560 11833 ft 355 kts 338°
2026-05-05 10:21 25.83542 51.36612 12366 ft 357 kts 338°
2026-05-05 10:22 25.85879 51.35661 12898 ft 359 kts 338°
2026-05-05 10:22 25.88229 51.34703 13453 ft 361 kts 338°
2026-05-05 10:22 25.90598 51.33737 13929 ft 364 kts 338°
2026-05-05 10:22 25.92967 51.32768 14282 ft 370 kts 338°
2026-05-05 10:23 25.95377 51.31744 14708 ft 372 kts 334°
2026-05-05 10:23 25.97673 51.30412 15139 ft 373 kts 326°
2026-05-05 10:23 25.99799 51.28744 15567 ft 375 kts 319°
2026-05-05 10:23 26.01811 51.26883 15966 ft 378 kts 318°
2026-05-05 10:24 26.03860 51.25017 16386 ft 382 kts 319°
2026-05-05 10:24 26.05935 51.23139 16772 ft 386 kts 319°
2026-05-05 10:24 26.08025 51.21249 17176 ft 389 kts 319°
2026-05-05 10:24 26.10129 51.19341 17572 ft 392 kts 319°
2026-05-05 10:25 26.12251 51.17415 17976 ft 395 kts 318°
2026-05-05 10:25 26.14391 51.15470 18326 ft 398 kts 318°
2026-05-05 10:25 26.16538 51.13518 18718 ft 399 kts 318°
2026-05-05 10:25 26.18691 51.11558 19090 ft 400 kts 318°
2026-05-05 10:26 26.20855 51.09588 19464 ft 402 kts 318°
2026-05-05 10:26 26.23020 51.07615 19831 ft 403 kts 318°
2026-05-05 10:26 26.25194 51.05633 20163 ft 406 kts 318°
2026-05-05 10:26 26.27368 51.03618 20534 ft 407 kts 317°
2026-05-05 10:27 26.29538 51.01585 20890 ft 408 kts 317°
2026-05-05 10:27 26.31715 50.99541 21249 ft 409 kts 317°
2026-05-05 10:27 26.33896 50.97496 21604 ft 411 kts 317°
2026-05-05 10:27 26.36094 50.95437 21962 ft 413 kts 317°
2026-05-05 10:28 26.38268 50.93403 22297 ft 414 kts 317°
2026-05-05 10:28 26.40479 50.91333 22659 ft 416 kts 317°
2026-05-05 10:28 26.42699 50.89254 23057 ft 416 kts 317°
2026-05-05 10:28 26.44919 50.87176 23528 ft 413 kts 317°
2026-05-05 10:29 26.47108 50.85125 23975 ft 410 kts 317°
2026-05-05 10:29 26.49286 50.83084 24422 ft 407 kts 316°
2026-05-05 10:29 26.51447 50.81055 24874 ft 405 kts 316°
2026-05-05 10:29 26.53598 50.79034 25332 ft 403 kts 316°
2026-05-05 10:30 26.55737 50.77024 25796 ft 400 kts 315°
2026-05-05 10:30 26.57854 50.75034 26273 ft 397 kts 315°
2026-05-05 10:30 26.59939 50.73073 26773 ft 394 kts 314°
2026-05-05 10:30 26.62033 50.71102 27144 ft 396 kts 314°
2026-05-05 10:31 26.64165 50.69088 27201 ft 404 kts 314°
2026-05-05 10:31 26.66338 50.67035 27301 ft 413 kts 314°
2026-05-05 10:31 26.68560 50.64939 27397 ft 422 kts 314°
2026-05-05 10:31 26.70826 50.62803 27456 ft 430 kts 314°
2026-05-05 10:32 26.73139 50.60623 27606 ft 438 kts 314°
2026-05-05 10:32 26.75452 50.58445 27967 ft 440 kts 314°
2026-05-05 10:32 26.77796 50.56237 28392 ft 441 kts 314°
2026-05-05 10:32 26.80147 50.54021 28778 ft 443 kts 314°
2026-05-05 10:33 26.82515 50.51785 29172 ft 445 kts 314°
2026-05-05 10:33 26.84886 50.49544 29565 ft 447 kts 313°
2026-05-05 10:33 26.87266 50.47292 29937 ft 449 kts 313°
2026-05-05 10:33 26.89658 50.45028 30262 ft 451 kts 313°
2026-05-05 10:34 26.92061 50.42756 30586 ft 453 kts 313°
2026-05-05 10:34 26.94476 50.40471 30857 ft 456 kts 313°
2026-05-05 10:34 26.96858 50.38217 31171 ft 458 kts 313°
2026-05-05 10:34 26.99271 50.35933 31371 ft 464 kts 313°
2026-05-05 10:35 27.04250 50.31207 31527 ft 479 kts 313°
2026-05-05 10:35 27.06819 50.28769 31671 ft 486 kts 313°
2026-05-05 10:35 27.09404 50.26318 31790 ft 486 kts 313°
2026-05-05 10:36 27.14551 50.21438 31779 ft 482 kts 313°
2026-05-05 10:36 27.19921 50.16816 31772 ft 488 kts 317°
2026-05-05 10:37 27.25406 50.12296 31771 ft 488 kts 316°
2026-05-05 10:37 27.30876 50.07774 31771 ft 488 kts 316°
2026-05-05 10:38 27.36312 50.03276 31772 ft 488 kts 316°
2026-05-05 10:38 27.41675 49.98617 31771 ft 486 kts 315°
2026-05-05 10:39 27.46992 49.93890 31768 ft 486 kts 315°
2026-05-05 10:39 27.52323 49.89179 31780 ft 487 kts 315°
2026-05-05 10:40 27.57626 49.84504 31774 ft 486 kts 315°
2026-05-05 10:40 27.62960 49.79795 31773 ft 486 kts 315°
2026-05-05 10:41 27.68283 49.75090 31775 ft 486 kts 314°
2026-05-05 10:41 27.73600 49.70385 31770 ft 486 kts 314°
2026-05-05 10:42 27.81565 49.63314 31763 ft 485 kts 314°
2026-05-05 10:43 27.86863 49.58579 31765 ft 485 kts 314°
2026-05-05 10:43 27.92158 49.53844 31765 ft 485 kts 314°
2026-05-05 10:44 27.97421 49.49133 31769 ft 485 kts 314°
2026-05-05 10:44 28.02718 49.44385 31765 ft 486 kts 314°
2026-05-05 10:45 28.07992 49.39598 31762 ft 486 kts 313°
2026-05-05 10:45 28.13253 49.34783 31753 ft 486 kts 313°
2026-05-05 10:46 28.18516 49.29969 31782 ft 486 kts 313°
2026-05-05 10:46 28.23788 49.25145 31763 ft 487 kts 313°
2026-05-05 10:47 28.29061 49.20315 31763 ft 486 kts 313°
2026-05-05 10:47 28.34327 49.15486 31762 ft 486 kts 313°
2026-05-05 10:48 28.39578 49.10695 31754 ft 489 kts 316°
2026-05-05 10:48 28.45237 49.06334 31759 ft 491 kts 318°
2026-05-05 10:49 28.50897 49.01993 31756 ft 491 kts 318°
2026-05-05 10:49 28.56566 48.97635 31759 ft 491 kts 318°
2026-05-05 10:50 28.62228 48.93282 31756 ft 490 kts 318°
2026-05-05 10:50 28.66926 48.89667 31752 ft 490 kts 318°
2026-05-05 10:51 28.73499 48.84602 31764 ft 491 kts 318°
2026-05-05 10:51 28.78234 48.80949 31742 ft 491 kts 318°
2026-05-05 10:52 28.83894 48.76589 31743 ft 491 kts 319°
2026-05-05 10:52 28.89575 48.72244 31755 ft 492 kts 318°
2026-05-05 10:53 28.95217 48.67921 31762 ft 492 kts 318°
2026-05-05 10:53 29.00910 48.63549 31763 ft 492 kts 318°
2026-05-05 10:54 29.06586 48.59183 31759 ft 492 kts 318°
2026-05-05 10:54 29.12268 48.54806 31764 ft 492 kts 318°
2026-05-05 10:55 29.17913 48.50453 31764 ft 492 kts 318°
2026-05-05 10:55 29.23592 48.46066 31770 ft 492 kts 318°
2026-05-05 10:56 29.29262 48.41682 31765 ft 492 kts 318°
2026-05-05 10:56 29.34908 48.37309 31773 ft 492 kts 318°
2026-05-05 10:57 29.40578 48.32911 31768 ft 492 kts 318°
2026-05-05 10:57 29.46395 48.28712 31770 ft 497 kts 322°
2026-05-05 10:58 29.52415 48.24771 31769 ft 497 kts 322°
2026-05-05 10:58 29.58368 48.20850 31769 ft 498 kts 322°
2026-05-05 10:59 29.64380 48.16885 31769 ft 499 kts 322°
2026-05-05 10:59 29.70394 48.12915 31770 ft 499 kts 322°
2026-05-05 11:00 29.76424 48.08928 31770 ft 499 kts 322°
2026-05-05 11:00 29.82446 48.04942 31772 ft 499 kts 322°
2026-05-05 11:01 29.88472 48.00948 31772 ft 499 kts 322°
2026-05-05 11:01 29.94517 47.96935 31774 ft 500 kts 322°
2026-05-05 11:02 30.00368 47.92757 31768 ft 491 kts 315°
2026-05-05 11:02 30.05390 47.87559 31776 ft 478 kts 305°
2026-05-05 11:03 30.09727 47.81780 31756 ft 476 kts 303°
2026-05-05 11:03 30.14053 47.76034 31757 ft 476 kts 303°
2026-05-05 11:04 30.18415 47.70214 31766 ft 476 kts 303°
2026-05-05 11:04 30.22719 47.64454 31749 ft 476 kts 303°
2026-05-05 11:05 30.27053 47.58644 31755 ft 476 kts 303°
2026-05-05 11:05 30.31380 47.52835 31761 ft 477 kts 303°
2026-05-05 11:06 30.35712 47.47009 31771 ft 478 kts 303°
2026-05-05 11:06 30.40052 47.41165 31772 ft 478 kts 303°
2026-05-05 11:07 30.44386 47.35321 31778 ft 478 kts 303°
2026-05-05 11:07 30.48724 47.29463 31780 ft 478 kts 303°
2026-05-05 11:08 30.53057 47.23601 31774 ft 478 kts 303°
2026-05-05 11:08 30.57385 47.17740 31781 ft 478 kts 303°
2026-05-05 11:09 30.61704 47.11883 31776 ft 477 kts 303°
2026-05-05 11:09 30.65995 47.06058 31771 ft 477 kts 303°
2026-05-05 11:10 30.70305 47.00196 31769 ft 476 kts 303°
2026-05-05 11:10 30.74608 46.94336 31782 ft 476 kts 303°
2026-05-05 11:11 30.78901 46.88479 31769 ft 476 kts 303°
2026-05-05 11:11 30.83189 46.82621 31763 ft 475 kts 303°
2026-05-05 11:12 30.87470 46.76764 31766 ft 475 kts 303°
2026-05-05 11:12 30.91720 46.70940 31770 ft 476 kts 303°
2026-05-05 11:12 30.93866 46.67993 32113 ft 477 kts 303°
2026-05-05 11:13 30.96012 46.65051 32693 ft 475 kts 302°
2026-05-05 11:13 30.98145 46.62125 33238 ft 472 kts 302°
2026-05-05 11:13 31.00264 46.59213 33660 ft 470 kts 302°
2026-05-05 11:13 31.02374 46.56312 33790 ft 466 kts 302°
2026-05-05 11:14 31.04463 46.53436 33770 ft 464 kts 301°
2026-05-05 11:14 31.08597 46.47731 33786 ft 465 kts 301°
2026-05-05 11:14 31.10688 46.44841 34104 ft 466 kts 301°
2026-05-05 11:15 31.12778 46.41955 34527 ft 465 kts 301°
2026-05-05 11:15 31.14860 46.39081 34963 ft 463 kts 301°
2026-05-05 11:15 31.16959 46.36212 35324 ft 465 kts 303°
2026-05-05 11:15 31.19265 46.33525 35670 ft 473 kts 308°
2026-05-05 11:16 31.21846 46.31068 35778 ft 481 kts 314°
2026-05-05 11:16 31.27665 46.27074 35798 ft 492 kts 323°
2026-05-05 11:17 31.33818 46.23509 35787 ft 493 kts 323°
2026-05-05 11:17 31.39921 46.19941 35796 ft 493 kts 323°
2026-05-05 11:18 31.46058 46.16358 35802 ft 492 kts 323°
2026-05-05 11:18 31.52192 46.12775 35808 ft 492 kts 323°
2026-05-05 11:19 31.58322 46.09187 35843 ft 492 kts 323°
2026-05-05 11:19 31.64459 46.05588 35810 ft 492 kts 323°
2026-05-05 11:20 31.70549 46.02012 35828 ft 492 kts 323°
2026-05-05 11:20 31.76676 45.98409 35822 ft 493 kts 323°
2026-05-05 11:21 31.82813 45.94794 35833 ft 494 kts 323°
2026-05-05 11:21 31.88957 45.91171 35837 ft 494 kts 323°
2026-05-05 11:22 31.95104 45.87539 35846 ft 494 kts 323°
2026-05-05 11:22 32.01256 45.83901 35839 ft 494 kts 323°
2026-05-05 11:23 32.07399 45.80261 35846 ft 494 kts 323°
2026-05-05 11:23 32.13546 45.76614 35854 ft 494 kts 322°
2026-05-05 11:24 32.19644 45.72990 35850 ft 493 kts 322°
2026-05-05 11:24 32.25784 45.69335 35847 ft 493 kts 322°
2026-05-05 11:25 32.31920 45.65678 35852 ft 493 kts 322°
2026-05-05 11:25 32.38006 45.62045 35879 ft 493 kts 322°
2026-05-05 11:26 32.44134 45.58380 35863 ft 493 kts 322°
2026-05-05 11:26 32.50254 45.54716 35868 ft 493 kts 322°
2026-05-05 11:27 32.56381 45.51041 35871 ft 493 kts 322°
2026-05-05 11:27 32.62499 45.47367 35873 ft 492 kts 322°
2026-05-05 11:28 32.68608 45.43692 35882 ft 492 kts 322°
2026-05-05 11:28 32.74723 45.40007 35879 ft 492 kts 322°
2026-05-05 11:29 32.80827 45.36324 35877 ft 492 kts 322°
2026-05-05 11:29 32.86896 45.32655 35880 ft 493 kts 322°
2026-05-05 11:30 32.93009 45.28955 35883 ft 493 kts 322°
2026-05-05 11:30 32.99116 45.25252 35891 ft 493 kts 322°
2026-05-05 11:31 33.05247 45.21529 35878 ft 494 kts 322°
2026-05-05 11:31 33.11372 45.17804 35884 ft 495 kts 322°
2026-05-05 11:32 33.17512 45.14064 35890 ft 495 kts 322°
2026-05-05 11:32 33.23656 45.10316 35875 ft 495 kts 322°
2026-05-05 11:33 33.29796 45.06564 35871 ft 497 kts 321°
2026-05-05 11:33 33.35910 45.02821 35886 ft 497 kts 321°
2026-05-05 11:34 33.42074 44.99043 35896 ft 497 kts 321°
2026-05-05 11:34 33.48239 44.95257 35880 ft 498 kts 321°
2026-05-05 11:35 33.54416 44.91459 35879 ft 499 kts 321°
2026-05-05 11:35 33.59554 44.88294 35880 ft 499 kts 321°
2026-05-05 11:36 33.65727 44.84487 35875 ft 499 kts 321°
2026-05-05 11:36 33.71910 44.80667 35872 ft 500 kts 321°
2026-05-05 11:37 33.78097 44.76838 35868 ft 500 kts 321°
2026-05-05 11:37 33.84284 44.73004 35870 ft 500 kts 321°
2026-05-05 11:38 33.90478 44.69158 35866 ft 500 kts 321°
2026-05-05 11:38 33.96659 44.65314 35882 ft 500 kts 321°
2026-05-05 11:39 34.02848 44.61459 35882 ft 500 kts 321°
2026-05-05 11:39 34.09014 44.57611 35857 ft 501 kts 321°
2026-05-05 11:40 34.15208 44.53740 35859 ft 501 kts 321°
2026-05-05 11:40 34.21403 44.49863 35856 ft 501 kts 321°
2026-05-05 11:41 34.27601 44.45975 35842 ft 502 kts 321°
2026-05-05 11:41 34.33735 44.42123 35862 ft 502 kts 321°
2026-05-05 11:42 34.39945 44.38215 35846 ft 503 kts 321°
2026-05-05 11:42 34.46137 44.34313 35845 ft 504 kts 321°
2026-05-05 11:43 34.52359 44.30385 35841 ft 505 kts 321°
2026-05-05 11:43 34.58593 44.26443 35843 ft 505 kts 321°
2026-05-05 11:44 34.64828 44.22494 35865 ft 505 kts 321°
2026-05-05 11:44 34.71076 44.18529 35839 ft 507 kts 321°
2026-05-05 11:45 34.77325 44.14557 35831 ft 508 kts 321°
2026-05-05 11:45 34.83595 44.10566 35836 ft 508 kts 321°
2026-05-05 11:46 34.89825 44.06593 35829 ft 508 kts 321°
2026-05-05 11:46 34.96086 44.02593 35863 ft 508 kts 321°
2026-05-05 11:47 35.02358 43.98577 35816 ft 509 kts 321°
2026-05-05 11:47 35.08634 43.94554 35823 ft 509 kts 321°
2026-05-05 11:48 35.18018 43.88524 35825 ft 510 kts 321°
2026-05-05 11:48 35.24297 43.84482 35827 ft 510 kts 321°
2026-05-05 11:49 35.30588 43.80421 35819 ft 512 kts 322°
2026-05-05 11:49 35.36897 43.76345 35823 ft 512 kts 322°
2026-05-05 11:50 35.43178 43.72279 35826 ft 513 kts 322°
2026-05-05 11:50 35.49609 43.68392 35824 ft 516 kts 323°
2026-05-05 11:51 35.56074 43.64509 35835 ft 517 kts 324°
2026-05-05 11:51 35.62550 43.60723 35825 ft 519 kts 325°
2026-05-05 11:52 35.69099 43.56943 35834 ft 520 kts 325°
2026-05-05 11:52 35.75646 43.53163 35838 ft 520 kts 325°
2026-05-05 11:53 35.82197 43.49372 35839 ft 520 kts 325°
2026-05-05 11:53 35.88739 43.45577 35831 ft 520 kts 325°
2026-05-05 11:54 35.95284 43.41773 35839 ft 520 kts 326°
2026-05-05 11:54 36.01755 43.38005 35834 ft 520 kts 326°
2026-05-05 11:55 36.08305 43.34186 35831 ft 520 kts 326°
2026-05-05 11:55 36.14859 43.30356 35826 ft 521 kts 326°
2026-05-05 11:56 36.21372 43.26545 35829 ft 521 kts 326°
2026-05-05 11:56 36.27931 43.22699 35857 ft 521 kts 326°
2026-05-05 11:57 36.34372 43.18914 35846 ft 522 kts 326°
2026-05-05 11:57 36.40940 43.15048 35850 ft 521 kts 326°
2026-05-05 11:58 36.47486 43.11188 35857 ft 521 kts 326°
2026-05-05 11:58 36.54053 43.07308 35860 ft 522 kts 326°
2026-05-05 11:59 36.60611 43.03425 35861 ft 522 kts 326°
2026-05-05 11:59 36.67132 42.99558 35869 ft 522 kts 326°
2026-05-05 12:00 36.73694 42.95659 35906 ft 522 kts 326°
2026-05-05 12:00 36.80263 42.91749 35869 ft 523 kts 326°
2026-05-05 12:01 36.86828 42.87833 35874 ft 523 kts 326°
2026-05-05 12:01 36.93401 42.83903 35880 ft 524 kts 327°
2026-05-05 12:02 36.99988 42.79959 35882 ft 525 kts 327°
2026-05-05 12:02 37.06570 42.76012 35892 ft 524 kts 327°
2026-05-05 12:03 37.13152 42.72056 35900 ft 524 kts 327°
2026-05-05 12:03 37.19718 42.68078 35928 ft 522 kts 324°
2026-05-05 12:04 37.25532 42.62926 35910 ft 504 kts 309°
2026-05-05 12:04 37.30012 42.56429 35908 ft 491 kts 299°
2026-05-05 12:05 37.34094 42.49625 35906 ft 492 kts 300°
2026-05-05 12:05 37.38226 42.42755 35911 ft 493 kts 300°
2026-05-05 12:06 37.42318 42.35916 35912 ft 492 kts 300°
2026-05-05 12:06 37.46427 42.29022 35922 ft 492 kts 300°
2026-05-05 12:07 37.50523 42.22134 35912 ft 492 kts 300°
2026-05-05 12:07 37.54622 42.15228 35912 ft 492 kts 300°
2026-05-05 12:08 37.58700 42.08337 35893 ft 493 kts 300°
2026-05-05 12:08 37.62796 42.01409 35896 ft 493 kts 300°
2026-05-05 12:09 37.66887 41.94472 35907 ft 493 kts 300°
2026-05-05 12:09 37.70979 41.87521 35894 ft 493 kts 301°
2026-05-05 12:10 37.75071 41.80554 35912 ft 494 kts 300°
2026-05-05 12:10 37.79167 41.73568 35918 ft 495 kts 300°
2026-05-05 12:11 37.83263 41.66572 35913 ft 495 kts 300°
2026-05-05 12:11 37.87368 41.59547 35916 ft 496 kts 300°
2026-05-05 12:12 37.91439 41.52560 35909 ft 496 kts 301°
2026-05-05 12:12 37.95535 41.45521 35903 ft 496 kts 301°
2026-05-05 12:13 37.99619 41.38486 35916 ft 496 kts 301°
2026-05-05 12:13 38.03706 41.31429 35899 ft 496 kts 301°
2026-05-05 12:14 38.07789 41.24366 35908 ft 497 kts 301°
2026-05-05 12:14 38.11868 41.17274 35908 ft 496 kts 300°
2026-05-05 12:15 38.15262 41.09721 35907 ft 489 kts 289°
2026-05-05 12:15 38.17789 41.01741 35909 ft 486 kts 287°
2026-05-05 12:16 38.20295 40.93747 35907 ft 488 kts 287°
2026-05-05 12:16 38.22794 40.85726 35917 ft 488 kts 287°
2026-05-05 12:17 38.25256 40.77734 35912 ft 487 kts 286°
2026-05-05 12:17 38.27671 40.69665 35939 ft 487 kts 286°
2026-05-05 12:18 38.30080 40.61598 35915 ft 487 kts 286°
2026-05-05 12:18 38.32490 40.53524 35913 ft 487 kts 286°
2026-05-05 12:19 38.34894 40.45452 35914 ft 487 kts 286°
2026-05-05 12:19 38.37283 40.37407 35916 ft 488 kts 287°
2026-05-05 12:20 38.39677 40.29320 35920 ft 488 kts 286°
2026-05-05 12:20 38.42068 40.21219 35920 ft 488 kts 286°
2026-05-05 12:21 38.44456 40.13105 35922 ft 488 kts 287°
2026-05-05 12:21 38.46837 40.04989 35926 ft 489 kts 286°
2026-05-05 12:22 38.48821 39.98203 35944 ft 492 kts 287°
2026-05-05 12:22 38.51602 39.88674 35951 ft 491 kts 287°
2026-05-05 12:23 38.53596 39.81822 35926 ft 490 kts 287°
2026-05-05 12:23 38.55951 39.73700 35917 ft 489 kts 287°
2026-05-05 12:24 38.58303 39.65566 35916 ft 487 kts 287°
2026-05-05 12:24 38.60643 39.57444 35886 ft 487 kts 287°
2026-05-05 12:25 38.62982 39.49316 35890 ft 487 kts 287°
2026-05-05 12:25 38.65357 39.41194 35885 ft 488 kts 287°
2026-05-05 12:26 38.67741 39.33045 35892 ft 490 kts 287°
2026-05-05 12:26 38.70110 39.24857 35896 ft 489 kts 285°
2026-05-05 12:27 38.71725 39.16451 35898 ft 485 kts 277°
2026-05-05 12:27 38.72972 39.08004 35883 ft 486 kts 277°
2026-05-05 12:28 38.74215 38.99688 35892 ft 486 kts 277°
2026-05-05 12:28 38.75476 38.91165 35895 ft 487 kts 277°
2026-05-05 12:29 38.76752 38.82609 35902 ft 489 kts 278°
2026-05-05 12:29 38.78038 38.74106 35896 ft 489 kts 278°
2026-05-05 12:30 38.79324 38.65547 35894 ft 489 kts 278°
2026-05-05 12:30 38.80602 38.56971 35903 ft 490 kts 278°
2026-05-05 12:31 38.81873 38.48382 35903 ft 490 kts 278°
2026-05-05 12:31 38.83139 38.39782 35889 ft 491 kts 278°
2026-05-05 12:32 38.84401 38.31170 35888 ft 491 kts 278°
2026-05-05 12:32 38.85657 38.22546 35897 ft 492 kts 278°
2026-05-05 12:33 38.86908 38.13910 35909 ft 492 kts 278°
2026-05-05 12:33 38.88154 38.05267 35901 ft 493 kts 278°
2026-05-05 12:34 38.89386 37.96676 35905 ft 493 kts 278°
2026-05-05 12:34 38.90620 37.88013 35903 ft 493 kts 278°
2026-05-05 12:35 38.91849 37.79341 35906 ft 494 kts 278°
2026-05-05 12:35 38.93072 37.70667 35907 ft 494 kts 278°
2026-05-05 12:36 38.94291 37.61970 35916 ft 494 kts 278°
2026-05-05 12:36 38.95502 37.53280 35909 ft 494 kts 278°
2026-05-05 12:37 38.96707 37.44581 35904 ft 495 kts 278°
2026-05-05 12:37 38.97900 37.35923 35905 ft 495 kts 278°
2026-05-05 12:38 38.99095 37.27205 35907 ft 495 kts 278°
2026-05-05 12:38 39.00282 37.18485 35916 ft 495 kts 278°
2026-05-05 12:39 39.01464 37.09757 35913 ft 496 kts 278°
2026-05-05 12:39 39.02643 37.01002 35918 ft 496 kts 278°
2026-05-05 12:40 39.03815 36.92248 35924 ft 496 kts 278°
2026-05-05 12:40 39.04979 36.83496 35923 ft 497 kts 278°
2026-05-05 12:41 39.06131 36.74789 35936 ft 497 kts 278°
2026-05-05 12:41 39.07284 36.66024 35930 ft 496 kts 278°
2026-05-05 12:42 39.08429 36.57261 35932 ft 496 kts 278°
2026-05-05 12:42 39.09566 36.48502 35924 ft 496 kts 279°
2026-05-05 12:43 39.10698 36.39737 35926 ft 496 kts 278°
2026-05-05 12:43 39.11821 36.30989 35928 ft 495 kts 278°
2026-05-05 12:44 39.12938 36.22231 35921 ft 495 kts 278°
2026-05-05 12:44 39.14047 36.13481 35908 ft 495 kts 278°
2026-05-05 12:45 39.15343 36.04826 35916 ft 495 kts 285°
2026-05-05 12:45 39.17835 35.96551 35921 ft 497 kts 296°
2026-05-05 12:46 39.20953 35.88594 35937 ft 496 kts 296°
2026-05-05 12:46 39.24037 35.80637 35942 ft 496 kts 296°
2026-05-05 12:47 39.27120 35.72673 35919 ft 496 kts 296°
2026-05-05 12:47 39.30189 35.64726 35952 ft 494 kts 296°
2026-05-05 12:48 39.33238 35.56814 35930 ft 494 kts 296°
2026-05-05 12:48 39.36295 35.48860 35927 ft 494 kts 296°
2026-05-05 12:49 39.39328 35.40945 35943 ft 493 kts 297°
2026-05-05 12:49 39.42365 35.33000 35933 ft 493 kts 296°
2026-05-05 12:50 39.45398 35.25047 35936 ft 493 kts 296°
2026-05-05 12:50 39.48422 35.17092 35947 ft 492 kts 297°
2026-05-05 12:51 39.51447 35.09116 35944 ft 492 kts 297°
2026-05-05 12:51 39.54462 35.01147 35947 ft 492 kts 297°
2026-05-05 12:52 39.57467 34.93177 35954 ft 492 kts 297°
2026-05-05 12:52 39.60444 34.85265 35953 ft 491 kts 297°
2026-05-05 12:53 39.63431 34.77304 35951 ft 490 kts 297°
2026-05-05 12:53 39.66411 34.69341 35941 ft 490 kts 297°
2026-05-05 12:54 39.70853 34.57429 35958 ft 488 kts 297°
2026-05-05 12:55 39.73804 34.49490 35957 ft 487 kts 297°
2026-05-05 12:55 39.76749 34.41544 35971 ft 486 kts 297°
2026-05-05 12:56 39.79675 34.33630 35956 ft 485 kts 297°
2026-05-05 12:56 39.82569 34.25781 35951 ft 484 kts 297°
2026-05-05 12:57 39.85475 34.17879 35944 ft 483 kts 297°
2026-05-05 12:57 39.88364 34.09998 35952 ft 482 kts 297°
2026-05-05 12:58 39.91249 34.02112 35947 ft 481 kts 297°
2026-05-05 12:58 39.94126 33.94226 35942 ft 481 kts 297°
2026-05-05 12:59 39.96970 33.86404 35961 ft 480 kts 298°
2026-05-05 12:59 39.99821 33.78547 35946 ft 479 kts 298°
2026-05-05 13:00 40.04061 33.66821 35942 ft 477 kts 297°
2026-05-05 13:01 40.09710 33.51127 35940 ft 477 kts 297°
2026-05-05 13:01 40.12522 33.43280 35941 ft 477 kts 297°
2026-05-05 13:02 40.15316 33.35463 35964 ft 476 kts 297°
2026-05-05 13:02 40.18119 33.27600 35967 ft 476 kts 297°
2026-05-05 13:03 40.20915 33.19741 35970 ft 476 kts 297°
2026-05-05 13:03 40.23721 33.11901 35976 ft 474 kts 300°
2026-05-05 13:04 40.27220 33.04709 35972 ft 470 kts 307°
2026-05-05 13:04 40.30928 32.97656 35971 ft 470 kts 307°
2026-05-05 13:05 40.34617 32.90592 35959 ft 469 kts 307°
2026-05-05 13:05 40.38300 32.83528 35960 ft 469 kts 307°
2026-05-05 13:06 40.41983 32.76449 35967 ft 470 kts 307°
2026-05-05 13:06 40.45665 32.69357 35980 ft 470 kts 307°
2026-05-05 13:07 40.49346 32.62251 35976 ft 471 kts 307°
2026-05-05 13:07 40.53023 32.55135 35988 ft 471 kts 307°
2026-05-05 13:08 40.56704 32.47996 35990 ft 471 kts 307°
2026-05-05 13:08 40.59759 32.42058 35993 ft 471 kts 307°
2026-05-05 13:09 40.63436 32.34897 36007 ft 472 kts 307°
2026-05-05 13:09 40.67708 32.26555 36025 ft 473 kts 307°
2026-05-05 13:10 40.70790 32.20524 36013 ft 473 kts 307°
2026-05-05 13:10 40.74432 32.13288 36029 ft 474 kts 306°
2026-05-05 13:11 40.78035 32.06003 36035 ft 474 kts 306°
2026-05-05 13:11 40.81643 31.98715 36035 ft 474 kts 306°
2026-05-05 13:12 40.85232 31.91458 36051 ft 474 kts 306°
2026-05-05 13:12 40.88835 31.84158 36055 ft 474 kts 306°
2026-05-05 13:13 40.92430 31.76857 36059 ft 474 kts 306°
2026-05-05 13:13 40.96016 31.69556 36067 ft 473 kts 305°
2026-05-05 13:14 40.99599 31.62243 36050 ft 474 kts 305°
2026-05-05 13:14 41.03180 31.54916 36062 ft 474 kts 305°
2026-05-05 13:15 41.06761 31.47574 36065 ft 474 kts 305°
2026-05-05 13:15 41.10253 31.40397 36071 ft 474 kts 305°
2026-05-05 13:16 41.13814 31.33060 36073 ft 475 kts 305°
2026-05-05 13:16 41.17389 31.25676 36074 ft 475 kts 305°
2026-05-05 13:17 41.20957 31.18290 36073 ft 474 kts 305°
2026-05-05 13:17 41.24513 31.10911 36071 ft 474 kts 305°
2026-05-05 13:18 41.28066 31.03519 36065 ft 474 kts 305°
2026-05-05 13:18 41.31586 30.96180 36048 ft 474 kts 305°
2026-05-05 13:19 41.35132 30.88769 36054 ft 474 kts 305°
2026-05-05 13:19 41.38728 30.81397 36055 ft 473 kts 309°
2026-05-05 13:20 41.42563 30.74262 36041 ft 475 kts 307°
2026-05-05 13:20 41.46426 30.67111 36060 ft 476 kts 308°
2026-05-05 13:21 41.50358 30.59982 36071 ft 477 kts 308°
2026-05-05 13:21 41.54303 30.52848 36059 ft 478 kts 308°
2026-05-05 13:22 41.58245 30.45701 36065 ft 478 kts 308°
2026-05-05 13:22 41.62256 30.38691 36070 ft 478 kts 311°
2026-05-05 13:23 41.66402 30.31707 36437 ft 480 kts 310°
2026-05-05 13:23 41.68491 30.28226 36815 ft 480 kts 311°
2026-05-05 13:23 41.70602 30.24765 37149 ft 480 kts 311°
2026-05-05 13:24 41.72675 30.21398 37551 ft 480 kts 311°
2026-05-05 13:24 41.74813 30.17939 37939 ft 479 kts 311°
2026-05-05 13:24 41.76948 30.14486 38078 ft 485 kts 311°
2026-05-05 13:24 41.79078 30.11037 38065 ft 476 kts 311°
2026-05-05 13:25 41.83290 30.04205 38065 ft 478 kts 311°
2026-05-05 13:25 41.87521 29.97326 38061 ft 477 kts 311°
2026-05-05 13:26 41.91743 29.90441 38067 ft 478 kts 311°
2026-05-05 13:26 41.95934 29.83585 38067 ft 478 kts 311°
2026-05-05 13:27 42.00150 29.76672 38066 ft 478 kts 311°
2026-05-05 13:27 42.04365 29.69741 38070 ft 479 kts 311°
2026-05-05 13:28 42.08583 29.62791 38072 ft 479 kts 311°
2026-05-05 13:28 42.12791 29.55840 38067 ft 479 kts 311°
2026-05-05 13:29 42.17010 29.48856 38073 ft 480 kts 310°
2026-05-05 13:29 42.21199 29.41906 38074 ft 480 kts 310°
2026-05-05 13:30 42.25413 29.34896 38068 ft 481 kts 310°
2026-05-05 13:30 42.29624 29.27876 38064 ft 481 kts 310°
2026-05-05 13:31 42.33846 29.20821 38070 ft 482 kts 310°
2026-05-05 13:31 42.38055 29.13769 38087 ft 482 kts 310°
2026-05-05 13:32 42.42259 29.06712 38088 ft 482 kts 310°
2026-05-05 13:32 42.46438 28.99677 38078 ft 482 kts 310°
2026-05-05 13:33 42.50605 28.92648 38078 ft 482 kts 310°
2026-05-05 13:33 42.54800 28.85554 38069 ft 482 kts 310°
2026-05-05 13:34 42.58988 28.78456 38062 ft 482 kts 310°
2026-05-05 13:34 42.63171 28.71348 38065 ft 482 kts 310°
2026-05-05 13:35 42.67353 28.64225 38064 ft 482 kts 310°
2026-05-05 13:35 42.71532 28.57090 38089 ft 482 kts 310°
2026-05-05 13:36 42.75703 28.49952 38076 ft 483 kts 310°
2026-05-05 13:36 42.79913 28.42732 38078 ft 488 kts 310°
2026-05-05 13:37 42.84129 28.35480 38083 ft 488 kts 310°
2026-05-05 13:37 42.88373 28.28165 38084 ft 494 kts 309°
2026-05-05 13:38 42.92628 28.20810 38081 ft 494 kts 309°
2026-05-05 13:38 42.96860 28.13479 38069 ft 494 kts 309°
2026-05-05 13:39 43.01107 28.06102 38072 ft 494 kts 309°
2026-05-05 13:39 43.05352 27.98710 38056 ft 494 kts 309°
2026-05-05 13:40 43.09590 27.91313 38054 ft 494 kts 309°
2026-05-05 13:40 43.13801 27.83943 38048 ft 494 kts 309°
2026-05-05 13:41 43.18034 27.76517 38050 ft 493 kts 309°
2026-05-05 13:41 43.22256 27.69091 38045 ft 494 kts 309°
2026-05-05 13:42 43.26479 27.61645 38047 ft 494 kts 309°
2026-05-05 13:42 43.30696 27.54192 38044 ft 494 kts 309°
2026-05-05 13:43 43.34827 27.46871 38045 ft 494 kts 309°
2026-05-05 13:43 43.39009 27.39442 38037 ft 494 kts 309°
2026-05-05 13:44 43.43212 27.31954 38032 ft 494 kts 309°
2026-05-05 13:44 43.47409 27.24460 38032 ft 494 kts 309°
2026-05-05 13:45 43.51605 27.16948 38030 ft 494 kts 309°
2026-05-05 13:45 43.55781 27.09450 38023 ft 493 kts 309°
2026-05-05 13:46 43.59930 27.01986 38019 ft 493 kts 309°
2026-05-05 13:46 43.64098 26.94467 38019 ft 493 kts 309°
2026-05-05 13:47 43.68257 26.86945 38009 ft 492 kts 309°
2026-05-05 13:47 43.72409 26.79415 38019 ft 493 kts 309°
2026-05-05 13:48 43.76558 26.71872 38019 ft 493 kts 309°
2026-05-05 13:48 43.80707 26.64310 38022 ft 493 kts 309°
2026-05-05 13:49 43.84843 26.56751 38036 ft 492 kts 309°
2026-05-05 13:49 43.88972 26.49187 38037 ft 492 kts 308°
2026-05-05 13:50 43.93066 26.41666 38009 ft 491 kts 308°
2026-05-05 13:50 43.97189 26.34072 38002 ft 492 kts 308°
2026-05-05 13:51 44.01307 26.26469 38010 ft 492 kts 308°
2026-05-05 13:51 44.05416 26.18862 38033 ft 492 kts 308°
2026-05-05 13:52 44.09517 26.11248 38028 ft 492 kts 308°
2026-05-05 13:52 44.13618 26.03617 37997 ft 491 kts 308°
2026-05-05 13:53 44.17677 25.96043 38011 ft 492 kts 308°
2026-05-05 13:53 44.21764 25.88397 38023 ft 492 kts 308°
2026-05-05 13:54 44.25844 25.80743 38022 ft 492 kts 308°
2026-05-05 13:54 44.29909 25.73099 38008 ft 490 kts 308°
2026-05-05 13:55 44.33956 25.65466 38001 ft 489 kts 308°
2026-05-05 13:55 44.38012 25.57798 38006 ft 489 kts 308°
2026-05-05 13:56 44.42026 25.50187 38000 ft 488 kts 308°
2026-05-05 13:56 44.46049 25.42541 38001 ft 487 kts 308°
2026-05-05 13:57 44.49362 25.36228 38005 ft 489 kts 308°
2026-05-05 13:57 44.53412 25.28494 37998 ft 489 kts 308°
2026-05-05 13:58 44.57428 25.20802 37993 ft 486 kts 307°
2026-05-05 13:58 44.61419 25.13139 37994 ft 486 kts 307°
2026-05-05 13:59 44.67401 25.01615 37994 ft 486 kts 307°
2026-05-05 14:00 44.73355 24.90097 37993 ft 484 kts 307°
2026-05-05 14:00 44.77279 24.82482 37991 ft 484 kts 307°
2026-05-05 14:01 44.81250 24.74754 37991 ft 484 kts 307°
2026-05-05 14:01 44.85166 24.67115 37977 ft 483 kts 307°
2026-05-05 14:02 44.89103 24.59412 37983 ft 484 kts 307°
2026-05-05 14:02 44.93037 24.51696 37979 ft 484 kts 307°
2026-05-05 14:03 44.96948 24.44004 37980 ft 484 kts 307°
2026-05-05 14:03 45.00873 24.36262 37985 ft 483 kts 307°
2026-05-05 14:04 45.04769 24.28557 37986 ft 482 kts 307°
2026-05-05 14:04 45.08669 24.20824 37987 ft 482 kts 307°
2026-05-05 14:05 45.12557 24.13094 37991 ft 482 kts 307°
2026-05-05 14:05 45.16437 24.05360 37999 ft 482 kts 306°
2026-05-05 14:06 45.20308 23.97620 37995 ft 481 kts 306°
2026-05-05 14:06 45.24181 23.89858 38012 ft 482 kts 306°
2026-05-05 14:07 45.28036 23.82110 38007 ft 483 kts 306°
2026-05-05 14:07 45.31900 23.74322 38007 ft 482 kts 306°
2026-05-05 14:08 45.35724 23.66594 38006 ft 481 kts 306°
2026-05-05 14:08 45.39570 23.58800 38011 ft 481 kts 306°
2026-05-05 14:09 45.43392 23.51034 38010 ft 482 kts 306°
2026-05-05 14:09 45.47231 23.43212 38003 ft 481 kts 306°
2026-05-05 14:10 45.51062 23.35385 38004 ft 482 kts 306°
2026-05-05 14:10 45.54892 23.27538 37992 ft 482 kts 306°
2026-05-05 14:11 45.58718 23.19679 37989 ft 480 kts 306°
2026-05-05 14:11 45.62521 23.11844 37993 ft 482 kts 306°
2026-05-05 14:12 45.66335 23.03964 37973 ft 481 kts 306°
2026-05-05 14:12 45.70138 22.96084 37964 ft 481 kts 306°
2026-05-05 14:13 45.73935 22.88198 37966 ft 481 kts 306°
2026-05-05 14:13 45.77668 22.80420 37965 ft 481 kts 305°
2026-05-05 14:14 45.81458 22.72503 37965 ft 481 kts 305°
2026-05-05 14:14 45.85241 22.64578 37966 ft 481 kts 305°
2026-05-05 14:15 45.89022 22.56637 37968 ft 482 kts 305°
2026-05-05 14:15 45.92801 22.48675 37971 ft 482 kts 305°
2026-05-05 14:16 45.96545 22.40765 37972 ft 482 kts 305°
2026-05-05 14:16 46.00310 22.32789 37967 ft 482 kts 305°
2026-05-05 14:17 46.04077 22.24786 37964 ft 483 kts 304°
2026-05-05 14:17 46.07847 22.16754 37962 ft 483 kts 304°
2026-05-05 14:18 46.11582 22.08772 37959 ft 483 kts 304°
2026-05-05 14:18 46.15334 22.00731 37957 ft 483 kts 304°
2026-05-05 14:19 46.19076 21.92691 37960 ft 483 kts 304°
2026-05-05 14:19 46.22806 21.84651 37958 ft 483 kts 304°
2026-05-05 14:20 46.26536 21.76589 37955 ft 483 kts 304°
2026-05-05 14:20 46.30271 21.68497 37952 ft 482 kts 304°
2026-05-05 14:21 46.33990 21.60427 37948 ft 482 kts 304°
2026-05-05 14:21 46.37707 21.52340 37960 ft 483 kts 304°
2026-05-05 14:22 46.41397 21.44289 37948 ft 483 kts 303°
2026-05-05 14:22 46.45111 21.36163 37943 ft 483 kts 303°
2026-05-05 14:23 46.48752 21.27971 37942 ft 483 kts 301°
2026-05-05 14:23 46.51906 21.19365 37940 ft 483 kts 296°
2026-05-05 14:24 46.54913 21.10645 37937 ft 483 kts 297°
2026-05-05 14:24 46.57938 21.01990 37937 ft 483 kts 297°
2026-05-05 14:25 46.60957 20.93266 37933 ft 483 kts 296°
2026-05-05 14:25 46.63960 20.84527 37934 ft 483 kts 296°
2026-05-05 14:26 46.66963 20.75757 37931 ft 483 kts 296°
2026-05-05 14:26 46.69953 20.66996 37923 ft 484 kts 296°
2026-05-05 14:27 46.72945 20.58200 37927 ft 484 kts 296°
2026-05-05 14:27 46.75904 20.49471 37928 ft 484 kts 296°
2026-05-05 14:28 46.78880 20.40662 37922 ft 483 kts 296°
2026-05-05 14:28 46.81848 20.31850 37920 ft 483 kts 296°
2026-05-05 14:29 46.84805 20.23038 37922 ft 482 kts 296°
2026-05-05 14:29 46.87763 20.14195 37926 ft 484 kts 296°
2026-05-05 14:30 46.90704 20.05369 37930 ft 483 kts 296°
2026-05-05 14:30 46.93641 19.96531 37935 ft 482 kts 295°
2026-05-05 14:31 46.96580 19.87650 37940 ft 485 kts 295°
2026-05-05 14:31 46.99490 19.78830 37939 ft 485 kts 295°
2026-05-05 14:32 47.02414 19.69938 37939 ft 484 kts 295°
2026-05-05 14:32 47.05334 19.61028 37915 ft 484 kts 295°
2026-05-05 14:33 47.08239 19.52131 37917 ft 484 kts 295°
2026-05-05 14:33 47.11146 19.43197 37915 ft 484 kts 295°
2026-05-05 14:34 47.14031 19.34300 37919 ft 485 kts 295°
2026-05-05 14:34 47.16830 19.25638 37919 ft 485 kts 295°
2026-05-05 14:35 47.19665 19.16836 37923 ft 484 kts 294°
2026-05-05 14:35 47.22543 19.07866 37923 ft 485 kts 294°
2026-05-05 14:36 47.25415 18.98885 37920 ft 486 kts 294°
2026-05-05 14:36 47.28278 18.89905 37915 ft 482 kts 294°
2026-05-05 14:37 47.31130 18.80924 37908 ft 481 kts 294°
2026-05-05 14:37 47.33935 18.72056 37969 ft 488 kts 294°
2026-05-05 14:38 47.35367 18.67519 38358 ft 488 kts 294°
2026-05-05 14:38 47.36794 18.62989 38775 ft 486 kts 294°
2026-05-05 14:38 47.38215 18.58470 39175 ft 484 kts 294°
2026-05-05 14:38 47.39633 18.53957 39396 ft 486 kts 293°
2026-05-05 14:39 47.41046 18.49446 39827 ft 483 kts 294°
2026-05-05 14:39 47.42460 18.44923 39899 ft 488 kts 293°
2026-05-05 14:39 47.45254 18.35972 39899 ft 476 kts 294°
2026-05-05 14:40 47.48038 18.27010 39891 ft 479 kts 293°
2026-05-05 14:40 47.50842 18.17958 39898 ft 483 kts 293°
2026-05-05 14:41 47.53586 18.09070 39895 ft 481 kts 293°
2026-05-05 14:41 47.56306 18.00226 39885 ft 478 kts 293°
2026-05-05 14:42 47.59059 17.91236 39889 ft 481 kts 292°
2026-05-05 14:42 47.61818 17.82201 39880 ft 483 kts 293°
2026-05-05 14:43 47.64576 17.73140 39882 ft 478 kts 293°
2026-05-05 14:43 47.67306 17.64134 39882 ft 476 kts 292°
2026-05-05 14:44 47.69568 17.56643 39878 ft 481 kts 292°
2026-05-05 14:44 47.72295 17.47584 39877 ft 480 kts 292°
2026-05-05 14:45 47.75450 17.37069 39856 ft 477 kts 292°
2026-05-05 14:45 47.77710 17.29506 39841 ft 479 kts 292°
2026-05-05 14:46 47.80397 17.20495 39838 ft 477 kts 292°
2026-05-05 14:46 47.83078 17.11461 39834 ft 478 kts 292°
2026-05-05 14:47 47.85691 17.02311 39825 ft 480 kts 292°
2026-05-05 14:47 47.88385 16.93231 39830 ft 478 kts 291°
2026-05-05 14:48 47.91048 16.84150 39811 ft 477 kts 291°
2026-05-05 14:48 47.93686 16.75060 39793 ft 477 kts 291°
2026-05-05 14:49 47.96309 16.65972 39781 ft 482 kts 291°
2026-05-05 14:49 47.98937 16.56845 39778 ft 478 kts 291°
2026-05-05 14:50 48.01542 16.47756 39773 ft 475 kts 291°
2026-05-05 14:50 48.04153 16.38610 39789 ft 479 kts 291°
2026-05-05 14:51 48.06765 16.29428 39784 ft 481 kts 291°
2026-05-05 14:51 48.09375 16.20220 39776 ft 480 kts 291°
2026-05-05 14:52 48.11968 16.11035 39774 ft 476 kts 291°
2026-05-05 14:52 48.14551 16.01849 39753 ft 479 kts 291°
2026-05-05 14:53 48.17135 15.92621 39760 ft 482 kts 291°
2026-05-05 14:53 48.19718 15.83369 39750 ft 482 kts 291°
2026-05-05 14:54 48.22292 15.74109 39751 ft 483 kts 291°
2026-05-05 14:54 48.24866 15.64812 39747 ft 482 kts 291°
2026-05-05 14:55 48.27434 15.55502 39747 ft 483 kts 291°
2026-05-05 14:55 48.29984 15.46219 39741 ft 484 kts 290°
2026-05-05 14:56 48.32547 15.36855 39734 ft 484 kts 290°
2026-05-05 14:56 48.35092 15.27518 39728 ft 477 kts 290°
2026-05-05 14:57 48.37579 15.18362 39739 ft 471 kts 290°
2026-05-05 14:57 48.40055 15.09202 39733 ft 473 kts 290°
2026-05-05 14:58 48.42524 15.00032 39734 ft 473 kts 290°
2026-05-05 14:58 48.44989 14.90846 39732 ft 473 kts 290°
2026-05-05 14:59 48.47446 14.81654 39741 ft 472 kts 290°
2026-05-05 14:59 48.49879 14.72514 39747 ft 472 kts 289°
2026-05-05 15:00 48.51908 14.64867 39751 ft 472 kts 289°
2026-05-05 15:00 48.54788 14.53957 39742 ft 486 kts 289°
2026-05-05 15:01 48.57274 14.44512 39749 ft 481 kts 289°
2026-05-05 15:01 48.59739 14.35104 39738 ft 482 kts 289°
2026-05-05 15:02 48.62197 14.25680 39754 ft 482 kts 289°
2026-05-05 15:02 48.64650 14.16239 39744 ft 483 kts 289°
2026-05-05 15:03 48.67093 14.06797 39748 ft 482 kts 289°
2026-05-05 15:03 48.69512 13.97412 39747 ft 482 kts 289°
2026-05-05 15:04 48.71943 13.87937 39744 ft 483 kts 289°
2026-05-05 15:04 48.74350 13.78527 39742 ft 482 kts 289°
2026-05-05 15:05 48.77838 13.64235 39752 ft 482 kts 287°
2026-05-05 15:06 48.80149 13.54689 39738 ft 482 kts 287°
2026-05-05 15:06 48.82445 13.45151 39736 ft 481 kts 287°
2026-05-05 15:07 48.84717 13.35595 39739 ft 481 kts 287°
2026-05-05 15:07 48.86978 13.26025 39738 ft 481 kts 287°
2026-05-05 15:08 48.89239 13.16415 39738 ft 484 kts 287°
2026-05-05 15:08 48.91494 13.06786 39738 ft 484 kts 287°
2026-05-05 15:09 48.93744 12.97136 39738 ft 484 kts 287°
2026-05-05 15:09 48.95969 12.87551 39740 ft 483 kts 287°
2026-05-05 15:10 48.98201 12.77889 39740 ft 483 kts 287°
2026-05-05 15:10 49.00424 12.68221 39738 ft 483 kts 286°
2026-05-05 15:11 49.02628 12.58600 39740 ft 483 kts 286°
2026-05-05 15:11 49.04834 12.48922 39742 ft 483 kts 286°
2026-05-05 15:12 49.07032 12.39237 39743 ft 483 kts 286°
2026-05-05 15:12 49.09225 12.29524 39750 ft 484 kts 286°
2026-05-05 15:13 49.11408 12.19817 39753 ft 483 kts 286°
2026-05-05 15:13 49.13579 12.10117 39763 ft 483 kts 286°
2026-05-05 15:14 49.15746 12.00390 39782 ft 484 kts 285°
2026-05-05 15:14 49.17918 11.90593 39768 ft 485 kts 285°
2026-05-05 15:15 49.20059 11.80889 39766 ft 485 kts 285°
2026-05-05 15:15 49.22212 11.71091 39789 ft 485 kts 285°
2026-05-05 15:16 49.24353 11.61298 39783 ft 485 kts 285°
2026-05-05 15:16 49.26488 11.51477 39787 ft 487 kts 285°
2026-05-05 15:17 49.28625 11.41614 39789 ft 487 kts 285°
2026-05-05 15:17 49.30743 11.31788 39792 ft 485 kts 285°
2026-05-05 15:18 49.32859 11.21919 39780 ft 487 kts 285°
2026-05-05 15:18 49.34968 11.12042 39778 ft 489 kts 285°
2026-05-05 15:19 49.37063 11.02177 39775 ft 489 kts 285°
2026-05-05 15:19 49.39359 10.92340 39788 ft 492 kts 291°
2026-05-05 15:20 49.42422 10.82906 39835 ft 493 kts 293°
2026-05-05 15:20 49.45481 10.73475 39832 ft 494 kts 293°
2026-05-05 15:21 49.48545 10.63981 39829 ft 494 kts 293°
2026-05-05 15:21 49.51598 10.54489 39820 ft 494 kts 293°
2026-05-05 15:22 49.54637 10.45002 39819 ft 494 kts 292°
2026-05-05 15:22 49.57651 10.35559 39824 ft 495 kts 292°
2026-05-05 15:23 49.60689 10.26004 39823 ft 496 kts 292°
2026-05-05 15:23 49.63718 10.16443 39827 ft 497 kts 292°
2026-05-05 15:24 49.66694 10.07014 39829 ft 497 kts 292°
2026-05-05 15:24 49.69702 9.97444 39826 ft 496 kts 292°
2026-05-05 15:25 49.72713 9.87826 39838 ft 498 kts 292°
2026-05-05 15:25 49.75723 9.78179 39835 ft 498 kts 292°
2026-05-05 15:26 49.78723 9.68522 39835 ft 498 kts 292°
2026-05-05 15:26 49.81716 9.58855 39824 ft 497 kts 292°
2026-05-05 15:27 49.84697 9.49182 39829 ft 498 kts 292°
2026-05-05 15:27 49.87678 9.39472 39829 ft 499 kts 292°
2026-05-05 15:28 49.90633 9.29811 39828 ft 499 kts 292°
2026-05-05 15:28 49.93596 9.20085 39828 ft 499 kts 292°
2026-05-05 15:29 49.96547 9.10329 39821 ft 502 kts 291°
2026-05-05 15:29 49.99524 9.00434 39823 ft 497 kts 292°
2026-05-05 15:30 50.02420 8.90885 39824 ft 485 kts 292°
2026-05-05 15:30 50.04803 8.82948 39824 ft 488 kts 291°
2026-05-05 15:31 50.07297 8.73166 39824 ft 487 kts 290°
2026-05-05 15:31 50.09922 8.63436 39829 ft 487 kts 289°
2026-05-05 15:32 50.12538 8.53687 39826 ft 486 kts 290°
2026-05-05 15:32 50.15181 8.43976 39822 ft 486 kts 290°
2026-05-05 15:33 50.17826 8.34259 39841 ft 486 kts 290°
2026-05-05 15:33 50.20458 8.24530 39837 ft 488 kts 290°
2026-05-05 15:34 50.23088 8.14757 39838 ft 489 kts 290°
2026-05-05 15:34 50.25716 8.04940 39843 ft 490 kts 289°
2026-05-05 15:35 50.28327 7.95152 39832 ft 489 kts 289°
2026-05-05 15:35 50.30933 7.85338 39821 ft 488 kts 289°
2026-05-05 15:36 50.33527 7.75523 39812 ft 487 kts 289°
2026-05-05 15:36 50.36108 7.65722 39806 ft 487 kts 289°
2026-05-05 15:37 50.38683 7.55899 39802 ft 486 kts 289°
2026-05-05 15:37 50.41249 7.46066 39807 ft 486 kts 289°
2026-05-05 15:38 50.43802 7.36239 39803 ft 487 kts 289°
2026-05-05 15:38 50.46351 7.26388 39803 ft 487 kts 289°
2026-05-05 15:39 50.48880 7.16572 39829 ft 488 kts 289°
2026-05-05 15:39 50.51417 7.06682 39821 ft 488 kts 289°
2026-05-05 15:40 50.53947 6.96778 39834 ft 488 kts 289°
2026-05-05 15:40 50.56471 6.86852 39820 ft 489 kts 289°
2026-05-05 15:41 50.58995 6.76877 39855 ft 492 kts 289°
2026-05-05 15:41 50.61525 6.66842 39848 ft 492 kts 289°
2026-05-05 15:42 50.64025 6.56882 39860 ft 491 kts 289°
2026-05-05 15:42 50.66525 6.46869 39833 ft 491 kts 289°
2026-05-05 15:43 50.69015 6.36857 39828 ft 490 kts 289°
2026-05-05 15:43 50.71496 6.26833 39851 ft 490 kts 288°
2026-05-05 15:44 50.73973 6.16781 39854 ft 490 kts 288°
2026-05-05 15:44 50.76431 6.06758 39861 ft 490 kts 288°
2026-05-05 15:45 50.78873 5.96756 39848 ft 490 kts 288°
2026-05-05 15:45 50.81318 5.86700 39849 ft 490 kts 288°
2026-05-05 15:46 50.83758 5.76615 39847 ft 490 kts 288°
2026-05-05 15:46 50.86187 5.66532 39851 ft 491 kts 288°
2026-05-05 15:47 50.88611 5.56419 39862 ft 491 kts 288°
2026-05-05 15:47 50.91025 5.46299 39856 ft 491 kts 288°
2026-05-05 15:48 50.93435 5.36156 39869 ft 492 kts 288°
2026-05-05 15:48 50.95827 5.26036 39876 ft 492 kts 288°
2026-05-05 15:49 50.98219 5.15872 39871 ft 491 kts 288°
2026-05-05 15:49 51.00598 5.05711 39866 ft 490 kts 288°
2026-05-05 15:50 51.02964 4.95561 39865 ft 490 kts 288°
2026-05-05 15:50 51.05320 4.85406 39866 ft 490 kts 288°
2026-05-05 15:51 51.07670 4.75224 39866 ft 489 kts 288°
2026-05-05 15:51 51.10004 4.65065 39880 ft 489 kts 288°
2026-05-05 15:52 51.12318 4.54948 39877 ft 489 kts 288°
2026-05-05 15:52 51.14634 4.44770 39876 ft 489 kts 288°
2026-05-05 15:53 51.16943 4.34577 39876 ft 489 kts 288°
2026-05-05 15:53 51.19236 4.24401 39879 ft 489 kts 288°
2026-05-05 15:54 51.21516 4.14234 39883 ft 490 kts 288°
2026-05-05 15:54 51.23802 4.03993 39883 ft 490 kts 287°
2026-05-05 15:55 51.26082 3.93731 39873 ft 490 kts 287°
2026-05-05 15:55 51.28353 3.83457 39879 ft 489 kts 287°
2026-05-05 15:56 51.30604 3.73222 39887 ft 489 kts 287°
2026-05-05 15:56 51.32832 3.63041 39880 ft 488 kts 287°
2026-05-05 15:57 51.35063 3.52791 39876 ft 487 kts 287°
2026-05-05 15:57 51.37282 3.42554 39879 ft 486 kts 287°
2026-05-05 15:58 51.39489 3.32317 39895 ft 486 kts 286°
2026-05-05 15:58 51.41684 3.22085 39894 ft 485 kts 286°
2026-05-05 15:59 51.43870 3.11840 39747 ft 486 kts 287°
2026-05-05 15:59 51.44963 3.06705 39377 ft 486 kts 286°
2026-05-05 15:59 51.46036 3.01645 38929 ft 485 kts 286°
2026-05-05 15:59 51.47123 2.96511 38461 ft 483 kts 286°
2026-05-05 16:00 51.48198 2.91419 37901 ft 482 kts 286°
2026-05-05 16:00 51.49268 2.86332 37355 ft 481 kts 286°
2026-05-05 16:00 51.50327 2.81285 36840 ft 484 kts 286°
2026-05-05 16:00 51.51399 2.76154 36311 ft 487 kts 286°
2026-05-05 16:01 51.52481 2.70985 35796 ft 487 kts 285°
2026-05-05 16:01 51.53551 2.65854 35303 ft 483 kts 286°
2026-05-05 16:01 51.54610 2.60763 34818 ft 478 kts 285°
2026-05-05 16:01 51.55658 2.55712 34335 ft 474 kts 285°
2026-05-05 16:02 51.56694 2.50700 33852 ft 473 kts 286°
2026-05-05 16:02 51.57729 2.45678 33304 ft 474 kts 286°
2026-05-05 16:02 51.58762 2.40649 32770 ft 473 kts 286°
2026-05-05 16:02 51.59787 2.35656 32237 ft 468 kts 286°
2026-05-05 16:03 51.60801 2.30712 31732 ft 462 kts 286°
2026-05-05 16:03 51.61801 2.25817 31203 ft 457 kts 285°
2026-05-05 16:03 51.62787 2.20983 30701 ft 452 kts 285°
2026-05-05 16:03 51.63760 2.16190 30197 ft 449 kts 285°
2026-05-05 16:04 51.64724 2.11431 29677 ft 446 kts 285°
2026-05-05 16:04 51.65679 2.06704 29106 ft 443 kts 285°
2026-05-05 16:04 51.66629 2.01993 28548 ft 441 kts 285°
2026-05-05 16:04 51.67571 1.97305 28003 ft 439 kts 285°
2026-05-05 16:05 51.68496 1.92706 27479 ft 436 kts 285°
2026-05-05 16:05 51.69432 1.88031 26847 ft 436 kts 286°
2026-05-05 16:05 51.70362 1.83392 26221 ft 435 kts 285°
2026-05-05 16:05 51.71292 1.78752 25590 ft 433 kts 285°
2026-05-05 16:06 51.72213 1.74135 24978 ft 431 kts 285°
2026-05-05 16:06 51.73129 1.69546 24381 ft 429 kts 285°
2026-05-05 16:06 51.73962 1.64957 24038 ft 421 kts 281°
2026-05-05 16:06 51.74399 1.60327 23939 ft 415 kts 272°
2026-05-05 16:07 51.74433 1.55742 23617 ft 412 kts 264°
2026-05-05 16:07 51.74123 1.51157 23040 ft 411 kts 261°
2026-05-05 16:07 51.73814 1.46585 22467 ft 407 kts 262°
2026-05-05 16:07 51.73527 1.42123 21986 ft 402 kts 263°
2026-05-05 16:08 51.73242 1.37668 21446 ft 397 kts 263°
2026-05-05 16:08 51.72957 1.33247 20821 ft 395 kts 263°
2026-05-05 16:08 51.72670 1.28853 20232 ft 393 kts 263°
2026-05-05 16:08 51.72381 1.24481 19644 ft 392 kts 263°
2026-05-05 16:09 51.72091 1.20128 19087 ft 390 kts 263°
2026-05-05 16:09 51.71801 1.15792 18502 ft 389 kts 263°
2026-05-05 16:09 51.71510 1.11479 17899 ft 387 kts 264°
2026-05-05 16:09 51.71219 1.07171 17386 ft 383 kts 264°
2026-05-05 16:10 51.70930 1.02925 16810 ft 380 kts 263°
2026-05-05 16:10 51.70643 0.98722 16294 ft 376 kts 263°
2026-05-05 16:10 51.70355 0.94553 16000 ft 372 kts 264°
2026-05-05 16:10 51.70068 0.90405 15953 ft 372 kts 264°
2026-05-05 16:11 51.69780 0.86262 15917 ft 371 kts 264°
2026-05-05 16:11 51.68915 0.73938 14554 ft 366 kts 264°
2026-05-05 16:12 51.68627 0.69869 14001 ft 365 kts 264°
2026-05-05 16:12 51.68070 0.62093 13583 ft 332 kts 263°
2026-05-05 16:13 51.67320 0.51737 12483 ft 304 kts 264°
2026-05-05 16:13 51.67071 0.48325 11929 ft 301 kts 264°
2026-05-05 16:13 51.66831 0.45044 11477 ft 296 kts 264°
2026-05-05 16:14 51.66351 0.38507 10500 ft 292 kts 264°
2026-05-05 16:14 51.65877 0.32133 9859 ft 274 kts 264°
2026-05-05 16:15 51.65442 0.26354 9351 ft 251 kts 265°
2026-05-05 16:15 51.65097 0.21731 8521 ft 250 kts 265°
2026-05-05 16:16 51.64682 0.16219 7950 ft 246 kts 264°
2026-05-05 16:16 51.64230 0.10721 7944 ft 249 kts 266°
2026-05-05 16:17 51.63884 0.05177 7944 ft 249 kts 266°
2026-05-05 16:17 51.63702 0.02430 7936 ft 249 kts 266°
2026-05-05 16:18 51.63346 -0.03114 7980 ft 249 kts 266°
2026-05-05 16:18 51.63171 -0.05876 8017 ft 247 kts 265°
2026-05-05 16:18 51.62841 -0.11245 7990 ft 239 kts 266°
2026-05-05 16:19 51.62686 -0.13909 8007 ft 239 kts 266°
2026-05-05 16:19 51.62513 -0.16569 8003 ft 239 kts 265°
2026-05-05 16:19 51.62173 -0.21891 8013 ft 239 kts 266°
2026-05-05 16:20 51.61810 -0.27212 8027 ft 238 kts 266°
2026-05-05 16:20 51.61468 -0.32523 7945 ft 238 kts 266°
2026-05-05 16:21 51.61147 -0.37812 7930 ft 240 kts 266°
2026-05-05 16:22 51.60640 -0.45788 7942 ft 239 kts 266°
2026-05-05 16:22 51.60285 -0.51044 7336 ft 235 kts 266°
2026-05-05 16:23 51.59939 -0.56236 5573 ft 232 kts 266°
2026-05-05 16:23 51.59762 -0.58814 4633 ft 230 kts 265°
2026-05-05 16:23 51.59437 -0.63716 4018 ft 214 kts 266°
2026-05-05 16:24 51.59278 -0.66110 4003 ft 217 kts 266°
2026-05-05 16:24 51.59115 -0.68518 4004 ft 219 kts 266°
2026-05-05 16:24 51.58755 -0.73309 3993 ft 218 kts 256°
2026-05-05 16:25 51.57971 -0.75399 4003 ft 222 kts 223°
2026-05-05 16:25 51.55212 -0.76569 3995 ft 201 kts 180°
2026-05-05 16:25 51.53834 -0.76644 3972 ft 195 kts 180°
2026-05-05 16:26 51.51133 -0.76781 3134 ft 191 kts 173°
2026-05-05 16:26 51.49179 -0.74280 3005 ft 188 kts 121°
2026-05-05 16:27 51.48430 -0.72569 3001 ft 185 kts 120°
2026-05-05 16:27 51.47877 -0.70744 2854 ft 181 kts 104°
2026-05-05 16:27 51.47667 -0.68786 2616 ft 177 kts 92°
2026-05-05 16:27 51.47622 -0.66827 2381 ft 176 kts 88°
2026-05-05 16:28 51.47626 -0.64865 2134 ft 175 kts 87°
2026-05-05 16:28 51.47638 -0.62935 1901 ft 168 kts 87°
2026-05-05 16:28 51.47647 -0.61160 1674 ft 151 kts 85°
2026-05-05 16:28 51.47660 -0.59509 1472 ft 146 kts 86°
2026-05-05 16:29 51.47670 -0.57876 1291 ft 147 kts 86°
2026-05-05 16:29 51.47681 -0.56258 1077 ft 145 kts 86°
2026-05-05 16:29 51.47694 -0.54628 830 ft 146 kts 85°
2026-05-05 16:29 51.47724 -0.53000 604 ft 146 kts 85°
2026-05-05 16:30 51.47739 -0.51351 416 ft 147 kts 87°
2026-05-05 16:30 51.47743 -0.49686 259 ft 151 kts 85°
2026-05-05 16:30 51.47753 -0.48018 96 ft 144 kts 88°
2026-05-05 16:30 51.47762 -0.46679 94 ft 95 kts 90°
2026-05-05 16:31 51.47763 -0.45936 90 ft 45 kts 90°
2026-05-05 16:31 51.47756 -0.45526 92 ft 15 kts 122°
2026-05-05 16:31 51.47669 -0.45464 92 ft 10 kts 178°
2026-05-05 16:31 51.47654 -0.45463 91 ft 0 kts 178°
2026-05-05 16:32 51.47633 -0.45463 91 ft 6 kts 185°
2026-05-05 16:32 51.47609 -0.45493 94 ft 6 kts 238°
2026-05-05 16:32 51.47595 -0.45575 95 ft 9 kts 264°
2026-05-05 16:32 51.47590 -0.45690 92 ft 12 kts 268°
2026-05-05 16:33 51.47589 -0.45831 92 ft 14 kts 272°
2026-05-05 16:33 51.47593 -0.46032 94 ft 19 kts 271°
2026-05-05 16:33 51.47594 -0.46247 94 ft 20 kts 270°
2026-05-05 16:33 51.47593 -0.46468 94 ft 20 kts 270°
2026-05-05 16:34 51.47593 -0.46688 94 ft 20 kts 270°
2026-05-05 16:34 51.47582 -0.46909 95 ft 20 kts 267°
2026-05-05 16:34 51.47582 -0.47132 95 ft 20 kts 270°
2026-05-05 16:34 51.47582 -0.47358 95 ft 20 kts 270°
2026-05-05 16:35 51.47581 -0.47582 94 ft 20 kts 270°
2026-05-05 16:35 51.47580 -0.47809 94 ft 16 kts 262°
2026-05-05 16:35 51.47534 -0.47865 95 ft 9 kts 181°
2026-05-05 16:35 51.47455 -0.47872 95 ft 14 kts 182°
2026-05-05 16:36 51.47346 -0.47875 93 ft 16 kts 175°
2026-05-05 16:36 51.47315 -0.47824 92 ft 13 kts 103°
2026-05-05 16:36 51.47315 -0.47775 91 ft 5 kts 89°
2026-05-05 16:36 51.47316 -0.47728 91 ft 0 kts 88°